7 * 24
多渠道服务支持
JILIN-1 GAOFEN 3J 是吉林一号高分系列卫星之一,由中国长光卫星技术有限公司研制。该卫星具备高分辨率光学成像能力,主要用于遥感观测、资源调查、环境监测等领域。其高精度成像技术可提供清晰的地表图像,支持农业、林业、城市规划等多行业应用。该卫星的发射进一步提升了吉林一号星座的数据获取能力和应用服务能力。
中国
(CN)
| 数据来源 | 国际轨道数据 |
| 星历时间: | 2025-12-07T14:19:38+0800 18小时前 查看轨道信息 |
| 半长轴: | 6771.192km |
| 偏心率: | 0.0005599 |
| 轨道倾角: | 97.257° |
| 近地点辐角 | 102.523° |
| 升交点赤经 | 30.409° |
| 平近点角 | 257.665° |
| 近地点: | 389.265km |
| 远地点: | 396.849km |
| 周期: | 92.418分钟 |
| 每日圈数: | 15.581351 |